Tracking 19706 objects as of 16-Jun-2019
HD Live streaming from Space Station
objects crossing your sky now

CZ-4 DEB

Track CZ-4 DEB now!
10-day predictions


NORAD ID: 26441
Int'l Code: 1999-057KN
Perigee: 643.0 km
Apogee: 726.5 km
Inclination: 98.3 °
Period: 98.3 minutes
Semi major axis: 7055 km
RCS: 0.0092 m2 (small)
Launch date: October 14, 1999
Source: People's Republic of China (PRC)
Launch site: Taiyaun Space Center, China (TSC)

Note: This is SATELLITE DEBRIS
aabbcc
Your satellite tracking list
Your tracking list is empty




NASA's NSSDC Master Catalog

Two Line Element Set (TLE):
1 26441U 99057KN  19167.48844249  .00000515  00000-0  10379-3 0  9998
2 26441  98.3136 167.1381 0059173 290.9203  68.5672 14.64847817 13161
Source of the keplerian elements: AFSPC